Tracking 19192 objects as of 21-Jun-2018
HD Live streaming from Space Station
objects crossing your sky now

SL-8 DEB

Track SL-8 DEB now!
10-day predictions


NORAD ID: 6289
Int'l Code: 1969-024C
Perigee: 1,157.5 km
Apogee: 1,175.6 km
Inclination: 74.0 °
Period: 108.5 minutes
Semi major axis: 7537 km
RCS: 0.0756 m2 (small)
Launch date: March 17, 1969
Source: Commonwealth of Independent States (former USSR) (CIS)
Launch site: PLESETSK MISSILE AND SPACE COMPLEX (PKMTR)

Note: This is SATELLITE DEBRIS
aabbcc
Your satellite tracking list
Your tracking list is empty




NASA's NSSDC Master Catalog

Two Line Element Set (TLE):
1 06289U 69024C   18172.79166715 -.00000017  00000-0  56229-5 0  9995
2 06289  73.9873  90.3002 0012001 100.3837 327.5567 13.26646748378824
Source of the keplerian elements: AFSPC